Tracking 29493 objects as of 8-Sep-2024
HD Live streaming from Space Station
objects crossing your sky now

STARLINK-2689

Track STARLINK-2689 now!
10-day predictions
STARLINK-2689 is classified as:


NORAD ID: 48463
Int'l Code: 2021-040AM
Perigee: 553.5 km
Apogee: 555.3 km
Inclination: 53.1 °
Period: 95.6 minutes
Semi major axis: 6925 km
RCS: Unknown
Launch date: May 9, 2021
Source: United States (US)
Launch site: AIR FORCE EASTERN TEST RANGE (AFETR)
Your satellite tracking list
Your tracking list is empty




NASA's NSSDC Master Catalog

Two Line Element Set (TLE):
1 48463U 21040AM  24251.89742662  .00023672  00000-0  16034-2 0  9996
2 48463  53.0535 130.7522 0001320 101.9737 258.1400 15.06385429183939
Source of the keplerian elements: AFSPC